User: anonymous   Login
Location: Kuffner-Sternwarte
(48.2130°N, 16.2960°E)
Time: 12:18:35
(UTC+02:00)
Language:

COROT - Orbit

View from above orbital plane
View from above orbital plane
View from above satellite
View from above satellite

Ground track
Ground track

The orbit data is extracted from the following two-line orbital elements,

1 29678U 06063A   18145.61361160 +.00000164 +00000-0 +33545-4 0  9995
2 29678 090.0355 016.5716 0203363 036.0090 325.4618 14.44177723589480
Epoch (UTC): 25 May 2018 14:43:36
Eccentricity: 0.0203363
inclination: 90.0355°
perigee height: 600 km
apogee height: 889 km
right ascension of ascending node: 16.5716°
argument of perigee: 36.0090°
revolutions per day: 14.44177723
mean anomaly at epoch: 325.4618°
orbit number at epoch: 58948

The dashed part of the orbit path shows where the satellite is in the earth's shadow,  

DLR